Orbital Elements at Epoch 2459000.5 (2020-May-31.0) TDB
Reference: JPL 9 (heliocentric ecliptic J2000)
Element | Value | Uncertainty (1-sigma) | Units |
e | .06526229651270427 | 6.2781e-08 | |
a | 2.923225490525072 | 5.3178e-08 | au |
q | 2.732449081788929 | 1.9862e-07 | au |
i | 12.90168388909998 | 6.1028e-06 | deg |
node | 121.3938299957371 | 2.5818e-05 | deg |
peri | 269.2465705482983 | 5.3697e-05 | deg |
M | 6.447380120846527 | 4.8772e-05 | deg |
tp | 2458967.805652256303 (2020-Apr-28.30565226) | 0.00024713 | TDB |
period | 1825.542308212097 5.00 | 4.9814e-05 1.364e-07 | d yr |
n | .1972016744725995 | 5.3811e-09 | deg/d |
Q | 3.114001899261215 | 5.6649e-08 | au |
|
| | Orbit Determination Parameters
Additional Information
|